W7KKE-3 Weather Reports


Display with metric or nautical units.
time (UTC)temp
F
wind
direction
speed
MPH
gust
MPH
rain 1hr
in
rain 24hr
in
rain mn
in
humidity
%
barometer
mb
20180119231931 47 158 5.0 9.0 0.03 1.13 0.94 100 1015.9
20180119231430 47 172 4.0 13.0 0.03 1.13 0.94 100 1016.0
20180119230930 47 85 1.0 13.0 0.03 1.13 0.94 100 1016.1
20180119230430 47 155 3.0 13.0 0.03 1.13 0.94 100 1015.9
20180119225930 47 25 6.0 10.0 0.03 1.13 0.94 100 1016.0
20180119225431 47 159 9.0 19.0 0.03 1.13 0.94 100 1015.9
20180119224930 47 121 7.0 19.0 0.02 1.13 0.94 100 1015.9
20180119224430 47 145 8.0 19.0 0.02 1.13 0.94 100 1015.8
20180119223930 47 133 0.0 10.0 0.00 1.13 0.91 100 1015.7
20180119221930 47 81 6.0 9.0 0.01 1.13 0.91 100 1015.5
20180119221430 47 89 3.0 9.0 0.01 1.13 0.91 100 1015.5
20180119220930 47 84 4.0 9.0 0.01 1.13 0.91 100 1015.5
20180119220430 47 95 4.0 9.0 0.01 1.13 0.91 100 1015.6
20180119215930 47 147 3.0 8.0 0.01 1.12 0.91 100 1015.5
20180119215431 47 119 3.0 8.0 0.01 1.12 0.91 100 1015.6
20180119214930 47 89 3.0 8.0 0.03 1.12 0.91 100 1015.7
20180119214430 46 67 3.0 6.0 0.03 1.12 0.91 100 1015.8
20180119213930 46 103 3.0 15.0 0.05 1.12 0.91 100 1015.8
20180119213430 46 123 5.0 15.0 0.05 1.12 0.91 100 1015.8
20180119211930 46 176 4.0 8.0 0.25 1.12 0.90 100 1015.8
20180119210430 45 144 2.0 7.0 0.29 1.12 0.90 100 1015.9
20180119205930 45 61 3.0 7.0 0.29 0.90 0.90 100 1015.9
20180119205430 45 85 2.0 5.0 0.29 0.90 0.90 100 1015.9
20180119204930 44 112 2.0 5.0 0.27 0.89 0.89 100 1016.1
20180119204430 44 64 1.0 4.0 0.27 0.88 0.88 100 1016.1
20180119203930 44 190 0.0 4.0 0.27 0.87 0.88 100 1016.1
20180119203429 44 254 0.0 16.0 0.27 0.86 0.87 100 1016.0
20180119202930 45 284 5.0 16.0 0.21 0.86 0.85 100 1016.2
20180119202430 46 291 5.0 16.0 0.21 0.86 0.81 100 1016.4
20180119201929 46 259 5.0 15.0 0.07 0.86 0.73 100 1016.1
20180119201430 46 222 5.0 15.0 0.07 0.86 0.66 100 1016.1
20180119200930 47 154 2.0 15.0 0.03 0.86 0.61 100 1016.0
20180119200429 47 131 7.0 12.0 0.03 0.86 0.61 100 1016.0
20180119195929 47 113 3.0 13.0 0.03 0.86 0.61 100 1015.9
20180119193930 46 44 4.0 13.0 0.02 0.86 0.60 100 1015.9
20180119192435 46 183 3.0 13.0 0.02 0.86 0.59 100 1015.9
20180119191931 46 154 2.0 13.0 0.01 0.86 0.58 100 1016.0
20180119191431 46 77 3.0 13.0 0.01 0.86 0.58 100 1015.9
20180119190930 46 133 4.0 12.0 0.01 0.86 0.58 100 1016.0
20180119190429 46 154 6.0 12.0 0.01 0.86 0.58 100 1016.1
20180119184930 45 91 3.0 8.0 0.01 0.86 0.58 100 1015.9
20180119184429 45 89 4.0 8.0 0.01 0.86 0.58 100 1015.9
20180119183930 45 100 1.0 13.0 0.00 0.86 0.57 100 1015.9
20180119183430 45 151 4.0 13.0 0.00 0.86 0.57 100 1016.0
20180119182929 46 145 4.0 13.0 0.00 0.86 0.57 100 1015.8
20180119182430 45 128 5.0 13.0 0.00 0.86 0.57 100 1015.8
20180119181929 45 147 4.0 13.0 0.00 0.86 0.57 100 1015.7
20180119175929 45 98 6.0 13.0 0.01 0.90 0.57 100 1015.4
20180119174429 45 112 4.0 12.0 0.02 0.90 0.57 100 1015.3
20180119173930 45 145 5.0 12.0 0.02 0.90 0.57 100 1015.2
20180119173430 45 127 4.0 9.0 0.02 0.90 0.57 100 1015.2
20180119172930 44 116 3.0 9.0 0.02 0.90 0.57 100 1015.1
20180119172430 44 109 5.0 9.0 0.02 0.90 0.57 100 1015.1
20180119170431 44 84 3.0 10.0 0.12 0.90 0.57 100 1014.8
20180119165931 44 65 5.0 10.0 0.11 0.78 0.57 100 1014.7
20180119165433 44 163 4.0 10.0 0.11 0.78 0.56 100 1014.7
20180119164931 44 110 4.0 9.0 0.13 0.78 0.56 100 1014.8
20180119164432 44 107 3.0 8.0 0.13 0.78 0.55 100 1014.7
20180119163932 44 79 4.0 7.0 0.14 0.78 0.55 100 1014.5
20180119161929 44 120 4.0 14.0 0.14 0.78 0.55 100 1014.6
20180119160430 44 155 1.0 8.0 0.13 0.78 0.45 100 1014.3
20180119155930 44 166 4.0 8.0 0.15 0.65 0.45 100 1013.9
20180119155431 44 116 2.0 8.0 0.15 0.65 0.45 100 1014.0
20180119152433 44 61 0.0 11.0 0.14 0.65 0.41 100 1014.0
20180119151931 44 156 0.0 11.0 0.13 0.65 0.41 100 1013.9
20180119141932 44 137 3.0 12.0 0.01 0.60 0.27 100 1013.3
20180119141431 44 133 2.0 12.0 0.01 0.60 0.27 100 1013.4
20180119134931 44 128 3.0 15.0 0.02 0.59 0.27 100 1013.0
20180119134431 44 60 4.0 15.0 0.02 0.59 0.27 100 1013.0
20180119133930 44 85 5.0 15.0 0.02 0.59 0.27 100 1012.7
20180119133431 44 176 5.0 13.0 0.02 0.59 0.27 100 1012.7
20180119132931 44 51 4.0 9.0 0.01 0.59 0.26 100 1012.8
20180119132430 44 58 4.0 9.0 0.01 0.59 0.26 100 1012.7
20180119131931 44 103 3.0 9.0 0.01 0.59 0.26 100 1012.7
20180119131432 44 81 4.0 9.0 0.01 0.59 0.26 100 1012.7
20180119130930 44 98 6.0 9.0 0.01 0.59 0.26 100 1012.7
20180119130430 44 134 3.0 10.0 0.01 0.59 0.26 100 1012.6
20180119125931 44 74 2.0 10.0 0.03 0.58 0.25 100 1012.7
20180119125431 44 102 5.0 10.0 0.03 0.58 0.25 100 1012.6
20180119122430 44 123 3.0 11.0 0.13 0.58 0.25 100 1012.6
20180119121430 44 109 4.0 7.0 0.15 0.58 0.25 100 1012.6
20180119120932 44 42 2.0 6.0 0.16 0.58 0.25 100 1012.6
20180119115930 44 123 0.0 9.0 0.14 0.42 0.22 100 1012.6
20180119114430 44 92 3.0 8.0 0.12 0.42 0.20 100 1012.6
20180119113932 44 158 2.0 8.0 0.08 0.42 0.18 100 1012.6
20180119113431 44 113 4.0 7.0 0.08 0.42 0.16 100 1012.6
20180119112931 44 151 4.0 14.0 0.04 0.42 0.13 100 1012.5
20180119105930 44 92 3.0 7.0 0.00 0.41 0.08 100 1012.2
20180119105431 44 79 3.0 9.0 0.00 0.41 0.08 100 1012.2
20180119104931 44 85 2.0 9.0 0.01 0.41 0.08 100 1012.1
20180119104431 44 93 3.0 9.0 0.01 0.41 0.08 100 1012.0
20180119103932 44 60 3.0 9.0 0.01 0.41 0.08 100 1012.0
20180119103433 44 91 4.0 9.0 0.01 0.41 0.08 100 1012.0
20180119102931 44 142 4.0 9.0 0.02 0.41 0.08 100 1012.0
20180119102433 44 85 5.0 9.0 0.02 0.41 0.08 100 1012.0
20180119100932 44 84 2.0 9.0 0.07 0.41 0.08 100 1012.0
20180119095931 44 72 3.0 9.0 0.07 0.34 0.08 100 1011.8
20180119095433 44 70 2.0 9.0 0.07 0.34 0.08 100 1012.0
20180119094930 44 72 5.0 10.0 0.07 0.34 0.08 100 1011.8
20180119094431 44 75 3.0 10.0 0.07 0.34 0.07 100 1011.8
20180119093932 44 85 4.0 10.0 0.07 0.34 0.07 100 1011.7
20180119093430 44 161 2.0 9.0 0.07 0.34 0.07 100 1011.8
20180119092930 44 155 3.0 25.0 0.06 0.34 0.06 100 1011.8
20180119092430 44 105 5.0 25.0 0.06 0.34 0.06 100 1012.1
20180119091431 45 168 7.0 14.0 0.03 0.34 0.03 100 1012.1
20180119090430 45 137 3.0 5.0 0.01 0.34 0.02 100 1011.4
20180119085930 45 103 4.0 12.0 0.01 0.33 0.01 100 1011.4
20180119085433 44 161 4.0 12.0 0.01 0.33 0.01 100 1011.5
20180119084930 45 64 5.0 12.0 0.00 0.33 0.00 100 1011.4
20180119082930 45 147 4.0 9.0 0.00 0.33 0.00 100 1011.4
20180119082432 45 75 5.0 8.0 0.00 0.33 0.00 100 1011.5
20180119081930 45 30 3.0 16.0 0.00 0.33 0.00 100 1011.5
20180119081430 45 116 5.0 16.0 0.00 0.33 0.00 100 1011.5
20180119080930 45 161 4.0 16.0 0.00 0.33 0.00 100 1011.4
20180119080430 45 119 3.0 9.0 0.00 0.33 0.00 100 1011.4
20180119075931 45 56 2.0 9.0 0.00 0.33 0.00 100 1011.4
20180119075430 45 95 5.0 9.0 0.00 0.33 0.33 100 1011.3
20180119074430 44 1 5.0 7.0 0.00 0.33 0.33 100 1011.2
20180119073931 44 70 3.0 6.0 0.00 0.33 0.33 100 1011.2
20180119073430 44 91 2.0 9.0 0.00 0.33 0.33 100 1011.2
20180119072933 44 75 2.0 9.0 0.00 0.33 0.33 100 1011.1
20180119071931 44 72 4.0 8.0 0.00 0.33 0.33 100 1011.0
20180119071430 44 67 2.0 8.0 0.00 0.33 0.33 100 1011.1
20180119065433 44 175 6.0 11.0 0.00 0.33 0.33 100 1011.1
20180119064930 44 79 4.0 9.0 0.00 0.33 0.33 100 1011.2
20180119064430 44 141 4.0 9.0 0.00 0.33 0.33 100 1011.1
20180119063931 44 105 4.0 7.0 0.01 0.33 0.33 100 1010.9
20180119063430 44 112 0.0 7.0 0.01 0.33 0.33 100 1010.9
20180119061930 45 100 2.0 5.0 0.10 0.33 0.33 100 1010.8
20180119061431 45 84 1.0 5.0 0.10 0.33 0.33 100 1010.8
20180119060931 45 0 0.0 0.0 0.10 0.33 0.33 100 1010.7
20180119060429 45 120 1.0 5.0 0.10 0.33 0.33 100 1010.7
20180119051930 45 58 2.0 5.0 0.05 0.23 0.23 98 1010.4
20180119051430 45 0 0.0 3.0 0.05 0.23 0.23 98 1010.5
20180119050930 45 88 0.0 3.0 0.05 0.23 0.23 98 1010.6
20180119050431 45 100 2.0 14.0 0.05 0.23 0.23 98 1010.7
20180119043931 45 109 0.0 7.0 0.00 0.19 0.20 98 1010.4
20180119043430 45 86 2.0 7.0 0.00 0.18 0.18 98 1010.1
20180119042931 45 99 3.0 10.0 0.00 0.18 0.18 98 1010.1
20180119041431 45 84 1.0 9.0 0.00 0.18 0.18 98 1010.3
20180119040931 45 100 2.0 9.0 0.00 0.18 0.18 98 1010.5
20180119040430 45 106 5.0 9.0 0.00 0.18 0.18 98 1010.5
20180119035930 45 98 1.0 4.0 0.00 0.18 0.18 98 1010.5
20180119035433 45 105 2.0 4.0 0.00 0.18 0.18 98 1010.2
20180119034930 45 84 2.0 4.0 0.00 0.18 0.18 98 1010.3
20180119034430 45 72 0.0 4.0 0.00 0.18 0.18 98 1010.1
20180119033931 45 71 1.0 8.0 0.00 0.18 0.18 98 1010.0
20180119033430 45 208 0.0 8.0 0.00 0.18 0.18 98 1010.1
20180119032929 46 64 4.0 8.0 0.00 0.18 0.18 98 1010.3
20180119032430 46 72 1.0 4.0 0.00 0.18 0.18 98 1010.2
20180119030429 46 142 4.0 10.0 0.00 0.18 0.18 98 1010.0
20180119025929 46 151 4.0 10.0 0.01 0.18 0.18 98 1010.0
20180119025430 46 152 4.0 10.0 0.01 0.18 0.18 98 1010.0
20180119024929 46 183 4.0 10.0 0.04 0.18 0.18 98 1010.1
20180119024429 46 156 4.0 11.0 0.04 0.18 0.18 98 1010.1
20180119023929 46 79 2.0 11.0 0.04 0.18 0.18 98 1010.1
20180119023429 46 158 4.0 11.0 0.04 0.18 0.18 98 1010.0
20180119022929 46 147 2.0 9.0 0.04 0.18 0.18 98 1010.2
20180119022435 46 124 4.0 8.0 0.04 0.18 0.18 98 1010.1
20180119021930 46 155 0.0 8.0 0.04 0.18 0.18 98 1010.0
20180119021430 46 151 2.0 8.0 0.04 0.18 0.18 98 1010.0
20180119020929 47 100 4.0 11.0 0.04 0.18 0.18 97 1010.1
20180119020429 47 22 3.0 11.0 0.04 0.18 0.18 97 1010.2
20180119015929 47 138 0.0 11.0 0.03 0.17 0.18 97 1010.1
20180119015430 47 135 3.0 9.0 0.03 0.17 0.17 97 1010.1
20180119014929 47 100 0.0 7.0 0.00 0.15 0.14 97 1010.3
20180119014429 47 82 3.0 7.0 0.00 0.15 0.14 97 1010.4
20180119013929 47 88 1.0 6.0 0.00 0.15 0.14 97 1010.2
20180119013429 47 155 3.0 6.0 0.00 0.15 0.14 97 1010.2
20180119012929 47 75 3.0 9.0 0.00 0.15 0.14 97 1010.2
20180119012429 47 123 3.0 9.0 0.00 0.15 0.14 97 1010.3
20180119011929 47 142 4.0 9.0 0.00 0.15 0.14 97 1010.3
20180119011431 47 131 4.0 8.0 0.00 0.15 0.14 97 1010.2
20180119010929 48 120 3.0 9.0 0.00 0.15 0.14 97 1010.2
20180119010429 47 74 2.0 9.0 0.00 0.15 0.14 97 1010.0
20180119005929 48 154 2.0 9.0 0.00 0.17 0.14 97 1010.2
20180119005429 48 155 1.0 8.0 0.00 0.17 0.14 97 1010.2
20180119004929 48 60 3.0 8.0 0.00 0.17 0.14 97 1010.3
20180119004429 48 130 0.0 9.0 0.00 0.17 0.14 97 1010.2
20180119003429 48 106 4.0 9.0 0.00 0.17 0.14 97 1010.3
20180119002929 48 113 4.0 8.0 0.00 0.17 0.14 97 1010.3
20180119001930 48 131 1.0 10.0 0.00 0.17 0.14 97 1010.3
20180119000931 48 82 4.0 10.0 0.00 0.17 0.14 97 1010.3
20180119000429 48 137 4.0 9.0 0.00 0.17 0.14 97 1010.3
20180118235930 48 79 3.0 9.0 0.01 0.29 0.14 97 1010.3
20180118235432 48 107 5.0 8.0 0.01 0.29 0.14 97 1010.4
20180118234429 48 58 2.0 7.0 0.02 0.29 0.14 97 1010.5
20180118233930 48 161 3.0 7.0 0.03 0.29 0.14 97 1010.6
20180118233431 48 114 1.0 11.0 0.03 0.29 0.14 97 1010.6
20180118232930 48 116 5.0 11.0 0.03 0.29 0.14 97 1010.7